Estación Meteorológica Peña el Pijo (Robertgarden) [ 07/11/20 21:40:07 CEST ]

Fecha Hora Presion(HPa) Temp (°C) Humedad % Rocio (°C) Viento ( m/s) Direccion Lluvia 1Hora(mm) Lluvia 24H(mm) LLuvia Total(mm)
2020-May-19 01:09:10 1012.800 - - - - W     39.88
2020-May-19 02:08:54 1012.500 - - - - W     39.88
2020-May-19 03:08:58 1012.300 - - - - W     39.88
2020-May-19 04:09:02 1012.000 - - - - W     39.88
2020-May-19 05:09:21 1011.500 - - - - W     39.88
2020-May-19 06:09:10 1011.300 - - - - W     39.88
2020-May-19 07:10:09 1011.300 - - - - W     39.88
2020-May-19 08:10:33 1011.300 - - - - W     39.88
2020-May-19 09:10:20 1011.400 - - - - W     39.88
2020-May-19 10:09:37 1011.000 - - - - W     39.88
2020-May-19 11:09:31 1011.300 - - - - W     39.88
2020-May-19 12:09:53 1011.200 - - - - W     39.88
2020-May-19 13:09:51 1011.000 - - - - W     39.88
2020-May-19 14:08:41 1010.500 - - - - W     39.88
2020-May-19 15:09:19 1010.100 - - - - W     39.88
2020-May-19 16:09:18 1009.800 - - - - W     39.88
2020-May-19 17:09:17 1009.500 - - - - W     39.88
2020-May-19 18:09:34 1009.200 - - - - W     39.88
2020-May-19 19:09:35 1009.500 - - - - W     39.88
2020-May-19 20:09:20 1009.600 - - - - W     39.88
2020-May-19 21:09:22 1009.900 - - - - W     39.88
2020-May-19 22:09:11 1010.300 - - - - W     39.88
2020-May-19 23:09:05 1011.000 - - - - W     39.88

Temperatura Máxima:    Temperatura Mínima:
Presión Máxima:1012.800 Hpa    Presión Mínima:1009.200 Hpa


Volver